This demonstration page uses our WeatherBlox Daily Observations layout. Learn more.

Left ArrowRight Arrow

39.51506, -84.39828

Hourly Observations for September 17, 2020

Temp ( °F °C ) Dew Point ( °F °C ) Humidity (%) Winds ( mph kmh ) Pressure ( in mb ) Visibility ( mi km ) Precip ( " mm )
12:15 am 00:15 Clear 56 13.4 56 13.4 100 100 Calm 30.06 1018 10 16.0934 0 0
12:35 am 00:35 Clear 55 12.9 55 12.8 99 99 Calm 30.06 1018 10 16.0934 0 0
12:55 am 00:55 Clear 56 13.1 55 13 99 99 Calm 30.05 1018 10 16.0934 0 0
1:15 am 01:15 Clear 56 13.1 55 13 99 99 Calm 30.05 1018 10 16.0934 0 0
1:35 am 01:35 Clear 55 13 54 12 94 94 Calm 30.05 1018 10 16.0934 0 0
1:55 am 01:55 Clear 54 12 N/A N/A Calm 30.05 1018 10 16.0934 0 0
2:15 am 02:15 Clear 54 12 N/A N/A Calm 30.05 1018 7 11.26538 0 0
2:35 am 02:35 Clear 54 12 N/A N/A Calm 30.04 1017 10 16.0934 0 0
2:55 am 02:55 Clear 52 11 N/A N/A Calm 30.05 1017 10 16.0934 0 0
3:15 am 03:15 Clear 52 11 N/A N/A Calm 30.04 1017 10 16.0934 0 0
3:35 am 03:35 Clear 52 11 N/A N/A Calm 30.03 1017 10 16.0934 0 0
3:55 am 03:55 Clear 52 11 N/A N/A Calm 30.03 1017 10 16.0934 0 0
4:15 am 04:15 Clear 50 10 N/A N/A Calm 30.03 1017 10 16.0934 0 0
4:35 am 04:35 Clear 50 10 N/A N/A Calm 30.02 1017 10 16.0934 0 0
4:55 am 04:55 Mostly Cloudy with Mist and Fog 50 10 N/A N/A Calm 30.03 1017 1 1.60934 0 0
5:15 am 05:15 Mostly Cloudy with Fog 48 9 N/A N/A Calm 30.03 1017 0.5 0.80467 0 0
5:35 am 05:35 Mostly Cloudy with Fog 48 9 N/A N/A Calm 30.03 1017 0.25 0.402335 0 0
5:55 am 05:55 Clear 50 10 N/A N/A Calm 30.03 1017 7 11.26538 0 0
6:15 am 06:15 Clear with Mist and Fog 50 10 N/A N/A Calm 30.03 1017 2.5 4.02335 0 0
6:35 am 06:35 Clear 50 10 N/A N/A Calm 30.04 1017 10 16.0934 0 0
6:55 am 06:55 Clear 48 9 N/A N/A Calm 30.04 1017 10 16.0934 0 0
7:15 am 07:15 Clear 48 9 N/A N/A Calm 30.04 1017 10 16.0934 0 0
7:35 am 07:35 Hazy 48 9 N/A N/A Calm 30.04 1017 5 8.0467 0 0
7:55 am 07:55 Sunny 48 9 N/A N/A Calm 30.04 1017 10 16.0934 0 0
8:15 am 08:15 Sunny 50 10 N/A N/A N 3 6 30.05 1018 10 16.0934 0 0
8:35 am 08:35 Sunny 52 11 N/A N/A Calm 30.04 1017 10 16.0934 0 0
8:55 am 08:55 Sunny 54 12 N/A N/A Calm 30.03 1017 10 16.0934 0 0
9:15 am 09:15 Sunny 56 13.5 56 13.3 99 99 Calm 30.03 1017 10 16.0934 0 0
9:35 am 09:35 Sunny 58 14.7 57 13.9 95 95 ENE 3 6 30.04 1017 10 16.0934 0 0
9:55 am 09:55 Sunny 61 16.1 58 14.2 89 89 NE 3 6 30.03 1017 10 16.0934 0 0
10:15 am 10:15 Sunny 64 17.9 57 14.1 79 79 NE 5 7 30.03 1017 10 16.0934 0 0
10:35 am 10:35 Sunny 67 19.6 56 13.4 68 68 NE 7 11 30.03 1017 10 16.0934 0 0
10:55 am 10:55 Sunny 70 21.1 56 13.4 62 62 NNE 6 9 30.02 1017 10 16.0934 0 0
11:15 am 11:15 Sunny 73 22.9 55 12.8 53 53 NE 9 15 30.02 1017 10 16.0934 0 0
11:35 am 11:35 Sunny 75 23.9 55 12.5 49 49 NNE 7 11 30.02 1016 10 16.0934 0 0
11:55 am 11:55 Sunny 77 25.2 52 11 41 41 ENE 8 13 30.01 1016 10 16.0934 0 0
12:15 pm 12:15 Sunny 79 26.2 52 11 39 39 ENE 8 13 30 1016 10 16.0934 0 0
12:35 pm 12:35 Sunny 79 25.9 52 11.1 40 40 NNE 8 13 30 1016 10 16.0934 0 0
12:55 pm 12:55 Sunny 79 26.3 54 12 41 41 NE 12 19 30 1016 10 16.0934 0 0
1:15 pm 13:15 Sunny 80 26.6 54 12.2 41 41 ENE 9 15 29.99 1016 10 16.0934 0 0
1:35 pm 13:35 Sunny 81 27.3 55 13 41 41 ENE 13 20 29.99 1016 10 16.0934 0 0
1:55 pm 13:55 Sunny 81 27.3 56 13.6 43 43 ENE 13 20 29.98 1015 10 16.0934 0 0
2:15 pm 14:15 Partly Cloudy 81 27.3 57 13.8 43 43 ESE 5 7 29.98 1015 10 16.0934 0 0
2:35 pm 14:35 Partly Cloudy 81 27.2 59 15.2 48 48 NE 9 15 29.97 1015 10 16.0934 0 0
2:55 pm 14:55 Partly Cloudy 80 26.6 60 15.4 50 50 N 9 15 29.96 1015 10 16.0934 0 0
3:15 pm 15:15 Mostly Cloudy 79 26.1 60 15.8 53 53 NNE 8 13 29.96 1015 10 16.0934 0 0
3:35 pm 15:35 Sunny 81 27.2 61 16.1 51 51 N 12 19 29.95 1014 10 16.0934 0 0
3:55 pm 15:55 Partly Cloudy 81 27.1 62 16.4 52 52 N 14 22 29.95 1014 10 16.0934 0 0
4:15 pm 16:15 Sunny 80 26.7 61 16.3 53 53 NNE 12 19 29.95 1014 10 16.0934 0 0
4:35 pm 16:35 Sunny 78 25.6 61 15.9 55 55 NNE 6 9 29.95 1014 10 16.0934 0 0
4:55 pm 16:55 Partly Cloudy 77 24.8 61 16 58 58 NNE 8 13 29.95 1014 7 11.26538 0 0
5:10 pm 17:10 Sunny 78 25.5 61 16.3 57 57 NNE 15 24 29.95 1014 10 16.0934 0 0
5:35 pm 17:35 Partly Cloudy 77 24.8 61 15.9 58 58 NNE 13 20 29.95 1014 10 16.0934 0 0
5:55 pm 17:55 Sunny 76 24.2 61 16.1 61 61 NE 13 20 29.95 1014 10 16.0934 0 0
6:15 pm 18:15 Sunny 74 23.5 60 15.8 62 62 NNE 14 22 29.97 1015 10 16.0934 0 0
6:35 pm 18:35 Mostly Cloudy 72 22.4 60 15.4 65 65 NE 14 22 29.98 1015 10 16.0934 0 0
6:55 pm 18:55 Partly Cloudy 71 21.9 60 15.3 66 66 NE 9 15 29.98 1015 10 16.0934 0 0
7:15 pm 19:15 Cloudy 71 21.8 59 15 65 65 NNE 12 19 29.98 1015 10 16.0934 0 0
7:35 pm 19:35 Cloudy 70 21.2 58 14.7 67 67 NNE 16 26 29.99 1016 10 16.0934 0 0
7:55 pm 19:55 Mostly Cloudy 69 20.3 57 13.7 66 66 NNE 10 17 29.99 1016 10 16.0934 0 0
8:15 pm 20:15 Cloudy 68 20 56 13.4 66 66 NNE 8 13 30 1016 10 16.0934 0 0
8:35 pm 20:35 Cloudy 68 19.9 56 13.3 66 66 NNE 9 15 30.01 1016 10 16.0934 0 0
8:55 pm 20:55 Cloudy 67 19.6 55 12.9 65 65 N 10 17 30.03 1017 10 16.0934 0 0
9:15 pm 21:15 Cloudy 67 19.3 55 12.6 65 65 NNE 14 22 30.04 1017 10 16.0934 0 0
9:35 pm 21:35 Cloudy 66 18.9 53 11.5 62 62 NNE 13 20 30.05 1018 10 16.0934 0 0
9:55 pm 21:55 Cloudy 65 18.6 53 11.6 64 64 NNE 12 19 30.05 1018 10 16.0934 0 0
10:15 pm 22:15 Cloudy 65 18.3 53 11.7 66 66 NNE 13 20 30.05 1018 10 16.0934 0 0
10:35 pm 22:35 Cloudy 65 18.1 53 11.4 65 65 NNE 13 20 30.06 1018 10 16.0934 0 0
10:55 pm 22:55 Cloudy 64 18 52 11.3 65 65 NNE 9 15 30.06 1018 10 16.0934 0 0
11:15 pm 23:15 Cloudy 64 17.9 52 11.1 65 65 NNE 9 15 30.06 1018 10 16.0934 0 0
11:35 pm 23:35 Cloudy 64 17.7 52 10.9 65 65 NNE 6 9 30.06 1018 10 16.0934 0 0
11:55 pm 23:55 Cloudy 64 17.6 51 10.8 65 65 NNE 7 11 30.06 1018 10 16.0934 0 0

Powered by AerisWeather